This is the latest recevied weather packets stored in our database for station/object SQ3RAX-13. If no packets are shown the sender has not sent any weather packets the latest 10 day(s).
| Time | Temp. | Humidity | Pressure | Rain* | Wind** | Luminosity | Snow |
|---|---|---|---|---|---|---|---|
| 1777645499 | 22.22° C | 36% | 1026 hPa | 0 mm | - | - | - |
| 1777644899 | 21.11° C | 34% | 1026 hPa | 0 mm | - | - | - |
| 1777644299 | 21.11° C | 34% | 1026 hPa | 0 mm | - | - | - |
| 1777643699 | 21.11° C | 34% | 1026 hPa | 0 mm | - | - | - |
| 1777642499 | 21.67° C | 34% | 1026 hPa | 0 mm | - | - | - |
| 1777641899 | 21.67° C | 33% | 1027 hPa | 0 mm | - | - | - |
| 1777638299 | 21.11° C | 38% | 1027 hPa | 0 mm | - | - | - |
| 1777637099 | 20.56° C | 39% | 1027 hPa | 0 mm | - | - | - |
| 1777635299 | 20.56° C | 40% | 1027 hPa | 0 mm | - | - | - |
| 1777634699 | 20.56° C | 40% | 1027 hPa | 0 mm | - | - | - |
| 1777634099 | 20° C | 41% | 1027 hPa | 0 mm | - | - | - |
| 1777633499 | 20° C | 42% | 1027 hPa | 0 mm | - | - | - |
| 1777632899 | 19.44° C | 43% | 1027 hPa | 0 mm | - | - | - |
| 1777631699 | 19.44° C | 43% | 1027 hPa | 0 mm | - | - | - |
| 1777631099 | 18.89° C | 43% | 1028 hPa | 0 mm | - | - | - |
| 1777630499 | 18.89° C | 45% | 1028 hPa | 0 mm | - | - | - |
| 1777629899 | 18.89° C | 45% | 1028 hPa | 0 mm | - | - | - |
| 1777628699 | 18.33° C | 46% | 1028 hPa | 0 mm | - | - | - |
| 1777628099 | 18.33° C | 46% | 1028 hPa | 0 mm | - | - | - |
| 1777627499 | 17.78° C | 45% | 1028 hPa | 0 mm | - | - | - |
| 1777626899 | 17.22° C | 46% | 1028 hPa | 0 mm | - | - | - |
| 1777626299 | 17.22° C | 49% | 1028 hPa | 0 mm | - | - | - |
| 1777625699 | 17.22° C | 49% | 1028 hPa | 0 mm | - | - | - |
| 1777625099 | 16.67° C | 49% | 1028 hPa | 0 mm | - | - | - |
| 1777624499 | 16.67° C | 50% | 1028 hPa | 0 mm | - | - | - |
* Rain latest hour (hover to see other rain measurements)
** Current wind speed in m/s (hover to see current wind gust speed)